Weather History for KJAC - December, 2012

Change the Weather History Date:

Monday, December 3, 2012

  Actual Average Record
Temperature  
Mean Temperature 28 °F -  
Max Temperature 33 °F 30 °F 48 °F (1998)
Min Temperature 24 °F 7 °F -21 °F (1984)
Degree Days  
Heating Degree Days 36    
Moisture  
Dew Point 24 °F    
Average Humidity 82    
Maximum Humidity 93    
Minimum Humidity 60    
Precipitation  
Precipitation 0.13 in - - ()
Sea Level Pressure  
Sea Level Pressure 30.11 in    
Wind  
Wind Speed 10 mph (South)    
Max Wind Speed 16 mph    
Max Gust Speed 21 mph    
Visibility 10 miles    
Events Snow    
Averages and records for this station are not official NWS values.
T = Trace of Precipitation, MM = Missing Value Source: NWS Daily Summary

Daily Weather History Graph

Daily Weather History Graph

Search for Another Location

Airport or City:

Trip Planner

Search our weather history database for the weather conditions in past years. The results will help you decide how hot, cold, wet, or windy it might be!

Date:

Astronomy

Dec. 03, 2012 Rise Set
Actual Time 7:39 AM MST 4:46 PM MST
Civil Twilight 7:06 AM MST 5:19 PM MST
Nautical Twilight 6:30 AM MST 5:54 PM MST
Astronomical Twilight 5:56 AM MST 6:29 PM MST
Moon 9:42 PM MST (12/3) 10:59 AM MST (12/3)
Length of Visible Light 10h 12m
Length of Day
9h 07m
Waning Gibbous, 77% of the Moon is Illuminated
Dec 3
Waning Gibbous
Dec 6
Last Quarter
Dec 13
New
Dec 19
First Quarter
Dec 28
Full

Hourly Weather History & Observations

Time (MST) Temp. Windchill Dew Point Humidity Pressure Visibility Wind Dir Wind Speed Gust Speed Precip Events Conditions
12:15 AM 32.0 °F 24.2 °F 28.4 °F 87% 29.90 in 8.0 mi South 9.2 mph - N/A   Overcast
12:35 AM 32.0 °F 21.2 °F 28.4 °F 87% 29.92 in 9.0 mi South 16.1 mph 20.7 mph N/A   Overcast
12:55 AM 32.0 °F 22.1 °F 26.6 °F 80% 29.93 in 10.0 mi South 13.8 mph 18.4 mph N/A   Mostly Cloudy
1:15 AM 30.2 °F 21.3 °F 26.6 °F 86% 29.93 in 10.0 mi South 10.4 mph - N/A   Overcast
1:35 AM 30.2 °F 19.8 °F 26.6 °F 86% 29.95 in 10.0 mi South 13.8 mph - N/A   Overcast
1:55 AM 30.2 °F 21.9 °F 26.6 °F 86% 29.96 in 10.0 mi South 9.2 mph - N/A   Mostly Cloudy
2:15 AM 28.4 °F 19.7 °F 24.8 °F 86% 29.97 in 10.0 mi South 9.2 mph - N/A   Mostly Cloudy
2:35 AM 28.4 °F 17.5 °F 24.8 °F 86% 29.99 in 10.0 mi South 13.8 mph - N/A   Scattered Clouds
2:55 AM 30.2 °F 20.8 °F 24.8 °F 80% 30.01 in 10.0 mi SSW 11.5 mph - N/A   Scattered Clouds
3:15 AM 30.2 °F 20.8 °F 24.8 °F 80% 30.01 in 10.0 mi South 11.5 mph - N/A   Overcast
3:35 AM 30.2 °F 20.2 °F 24.8 °F 80% 30.03 in 10.0 mi South 12.7 mph - N/A   Overcast
3:55 AM 30.2 °F 20.8 °F 24.8 °F 80% 30.04 in 10.0 mi South 11.5 mph - N/A   Overcast
4:15 AM 30.2 °F 21.9 °F 24.8 °F 80% 30.05 in 10.0 mi SSW 9.2 mph - N/A   Overcast
4:35 AM 28.4 °F 19.7 °F 24.8 °F 86% 30.04 in 10.0 mi South 9.2 mph - N/A   Overcast
4:55 AM 28.4 °F 18.5 °F 24.8 °F 86% 30.05 in 10.0 mi SSW 11.5 mph - N/A   Mostly Cloudy
5:15 AM 28.4 °F 21.2 °F 23.0 °F 80% 30.05 in 10.0 mi South 6.9 mph - N/A   Partly Cloudy
5:35 AM 26.6 °F 22.6 °F 23.0 °F 86% 30.04 in 10.0 mi SSW 3.5 mph - N/A   Clear
5:55 AM 26.6 °F 18.2 °F 24.8 °F 93% 30.04 in 10.0 mi South 8.1 mph - N/A   Scattered Clouds
6:15 AM 28.4 °F 18.0 °F 23.0 °F 80% 30.05 in 10.0 mi SSW 12.7 mph 18.4 mph N/A   Scattered Clouds
6:52 AM 26.6 °F 15.7 °F 23.0 °F 86% 30.07 in 10.0 mi South 12.7 mph - N/A   Scattered Clouds
7:53 AM 26.6 °F 20.0 °F 21.2 °F 80% 30.10 in 10.0 mi SSE 5.8 mph - N/A   Partly Cloudy
8:52 AM 30.2 °F 20.8 °F 21.2 °F 69% 30.11 in 10.0 mi South 11.5 mph - N/A   Scattered Clouds
9:51 AM 30.2 °F 20.8 °F 21.2 °F 69% 30.14 in 10.0 mi South 11.5 mph - N/A   Mostly Cloudy
10:54 AM 32.0 °F 23.0 °F 21.2 °F 64% 30.16 in 10.0 mi South 11.5 mph - N/A   Overcast
11:52 AM 32.0 °F 24.2 °F 21.2 °F 64% 30.17 in 10.0 mi South 9.2 mph - N/A   Mostly Cloudy
12:51 PM 33.8 °F 25.3 °F 23.0 °F 65% 30.16 in 8.0 mi South 11.5 mph - N/A   Mostly Cloudy
1:51 PM 33.8 °F 26.4 °F 21.2 °F 60% 30.15 in 10.0 mi South 9.2 mph - N/A   Mostly Cloudy
2:54 PM 33.8 °F 25.3 °F 21.2 °F 60% 30.17 in 10.0 mi SSW 11.5 mph - N/A Snow Snow
3:51 PM 30.2 °F 21.9 °F 24.8 °F 80% 30.17 in 10.0 mi South 9.2 mph - N/A   Scattered Clouds
4:59 PM 30.2 °F 23.4 °F 24.8 °F 80% 30.20 in 10.0 mi SE 6.9 mph - N/A   Scattered Clouds
5:52 PM 30.2 °F 25.4 °F 24.8 °F 80% 30.22 in 10.0 mi SE 4.6 mph - N/A   Scattered Clouds
6:51 PM 30.2 °F 25.4 °F 24.8 °F 80% 30.23 in 10.0 mi SSW 4.6 mph - N/A Snow Snow
7:55 PM 28.4 °F 24.6 °F 24.8 °F 86% 30.24 in 10.0 mi SW 3.5 mph - N/A Snow Snow
8:51 PM 28.4 °F 23.3 °F 24.8 °F 86% 30.26 in 10.0 mi SW 4.6 mph - N/A Snow Snow
8:55 PM 26.6 °F 21.2 °F 24.8 °F 93% 30.26 in 10.0 mi SW 4.6 mph - N/A   Overcast
9:35 PM 26.6 °F 22.6 °F 23.0 °F 86% 30.26 in 10.0 mi South 3.5 mph - N/A   Partly Cloudy
9:55 PM 26.6 °F 22.6 °F 23.0 °F 86% 30.26 in 10.0 mi South 3.5 mph - N/A   Clear
10:15 PM 24.8 °F 20.5 °F 21.2 °F 86% 30.26 in 10.0 mi South 3.5 mph - N/A   Clear
10:35 PM 26.6 °F 21.2 °F 23.0 °F 86% 30.26 in 10.0 mi SW 4.6 mph - N/A   Clear
10:55 PM 24.8 °F 19.1 °F 23.0 °F 93% 30.25 in 10.0 mi South 4.6 mph - N/A   Clear
11:15 PM 24.8 °F 19.1 °F 23.0 °F 93% 30.26 in 10.0 mi SSW 4.6 mph - N/A   Clear
11:35 PM 24.8 °F 19.1 °F 21.2 °F 86% 30.27 in 10.0 mi SSW 4.6 mph - N/A   Clear
11:55 PM 24.8 °F 16.9 °F 23.0 °F 93% 30.27 in 10.0 mi SSE 6.9 mph - N/A   Clear